Weather Service Report


188 
ASUS41 KCTP 040810
RWRCTP

REGIONAL WEATHER ROUNDUP
NATIONAL WEATHER SERVICE STATE COLLEGE PA
300 AM EST WED MAR 04 2015

Note: "fair" indicates few or no clouds below 12,000 feet with no 
significant weather and/or obstructions to visibility.

* = STATION THAT DOES NOT REPORT PRECIPITATION /E.G. RAIN...SNOW...ETC/
    THUNDER OR FOG.

PAZ002>004-007>009-013>016-020>023-029>032-040900-
WESTERN PENNSYLVANIA
  
CITY           SKY/WX    TMP DP  RH WIND       PRES   REMARKS
ERIE           CLOUDY    34  31  88 W14       29.77S                  
MEADVILLE        N/A     33  30  88 W13G22    29.75R                  
FRANKLIN*      CLOUDY    36  30  80 W14       29.77S                  
NEW CASTLE     LGT RAIN  36  33  88 W7        29.81R                  
BEAVER COUNTY  NOT AVBL                                               
BUTLER*        CLOUDY    37  34  87 NW8       29.80S                  
PITTSBURGH INT LGT RAIN  39  38  96 W5        29.80R                  
PITTSBURGH     LGT RAIN  40  35  83 W10       29.79R                  
INDIANA*       CLOUDY    39  39 100 W8        29.81R FOG              
LATROBE        RAIN      43  43 100 SW8       29.81R                  
WASHINGTON CO* CLOUDY    39  37  93 W7        29.82F                  
$$

PAZ004>006-010>012-017>019-024>028-033>037-041-042-045-046-049>053-040900-
CENTRAL PENNSYLVANIA
  
CITY           SKY/WX    TMP DP  RH WIND       PRES   REMARKS
BRADFORD       CLOUDY    34  31  88 W9        29.69F                  
DUBOIS         CLOUDY    36  35  96 W14       29.73R                  
CLEARFIELD     RAIN      35  33  92 SW6       29.73S FOG              
JOHNSTOWN      LGT RAIN  41  40  96 W16G24    29.76R                  
ALTOONA        LGT RAIN  33  32  96 SE6       29.74R FOG              
STATE COLLEGE  MIX PCPN  32  32  99 CALM      29.73S                  
WILLIAMSPORT   CLOUDY    30  27  88 CALM      29.73F FOG              
SELINSGROVE    CLOUDY    32  29  88 VRB3      29.74F FOG              
FT INDIANTOWN  MOCLDY    32  28  86 CALM      29.77F FOG              
CAPITAL CITY   CLOUDY    32  29  88 CALM      29.77F FOG              
HARRISBURG     CLOUDY    33  30  88 CALM      29.77F FOG              
YORK           CLOUDY    35  33  92 CALM      29.78F                  
$$

PAZ038>040-043-044-047-048-054-055-060>062-067>071-040900-
EASTERN PENNSYLVANIA
  
CITY           SKY/WX    TMP DP  RH WIND       PRES   REMARKS
SCRANTON       CLOUDY    31  27  85 NW3       29.73R FOG              
MOUNT POCONO   CLOUDY    33  31  92 W15       29.66F FOG              
ALLENTOWN      SLEET     34  30  86 W6        29.75F FOG              
QUAKERTOWN*    CLOUDY    32  32 100 CALM      29.77F                  
READING        CLOUDY    33  31  92 S6        29.77F FOG              
LANCASTER      CLOUDY    32  31  96 CALM      29.78F FOG              
COATESVILLE    PTSUNNY   34  34 100 W6        29.78F FOG              
POTTSTOWN      CLOUDY    33  33 100 SW3       29.80F                  
BLUE BELL      MOCLDY    36  34  93 W6        29.78F                  
DOYLESTOWN     CLOUDY    32  32 100 SW5       29.76F                  
WILLOW GROVE   NOT AVBL                                               
NORTH PHILA    LGT RAIN  36  32  85 W7        29.82F FOG              
PHILADELPHIA   LGT RAIN  34  32  92 SW10      29.82F FOG              
$$

Return to Home page


Western Regional Climate Center, wrcc@dri.edu